EDW25 MMUN-LSZH

Flight info

Callsign EDW25
Flight time N/A
Altitude 35000
Route DNY114016 TOPPS/N0469F370 NEEKO/M082F380 NATZ GISTI/M082F390 ARKIL/N0468F390 LIZAD JSY TURDU TADUP TEPRI/N0476F350 UN491 POGZI GELTA MANAG PEVIT BLM LSZH
Aircraft A343/H-SDE2E3FGHIJ4J5M1RWXY/LB1D1

Departure

Time N/A
Airport Cancún International Airport (MMUN)

Arrival

Time 2026-05-01 10:10
Airport Zürich Airport (LSZH)
Time Latitude Longitude Altitude Speed Heading
2026-05-01 07:23 54.20686 -21.50263 38313 ft 470 kts 100°
2026-05-01 07:24 54.18544 -21.33975 37755 ft 467 kts 99°
2026-05-01 07:24 54.17830 -21.28575 37371 ft 467 kts 99°
2026-05-01 07:24 54.17111 -21.23145 37304 ft 471 kts 99°
2026-05-01 07:25 54.15647 -21.12196 37302 ft 474 kts 100°
2026-05-01 07:25 54.14171 -21.01243 37303 ft 473 kts 100°
2026-05-01 07:26 54.12684 -20.90313 37295 ft 473 kts 100°
2026-05-01 07:26 54.11192 -20.79398 37296 ft 473 kts 100°
2026-05-01 07:27 54.09688 -20.68484 37293 ft 473 kts 100°
2026-05-01 07:27 54.08174 -20.57575 37290 ft 473 kts 100°
2026-05-01 07:28 54.06653 -20.46674 37293 ft 473 kts 100°
2026-05-01 07:28 54.05121 -20.35790 37286 ft 472 kts 100°
2026-05-01 07:29 54.03590 -20.25006 37285 ft 471 kts 100°
2026-05-01 07:29 54.02044 -20.14181 37278 ft 470 kts 100°
2026-05-01 07:30 54.00490 -20.03373 37280 ft 470 kts 100°
2026-05-01 07:30 53.98843 -19.92606 37278 ft 471 kts 103°
2026-05-01 07:31 53.96925 -19.81950 37288 ft 472 kts 104°
2026-05-01 07:32 53.92100 -19.55363 37270 ft 473 kts 103°
2026-05-01 07:33 53.89226 -19.39391 37273 ft 471 kts 103°
2026-05-01 07:33 53.86336 -19.23457 37255 ft 472 kts 103°
2026-05-01 07:34 53.83418 -19.07532 37256 ft 472 kts 104°
2026-05-01 07:35 53.81462 -18.96931 37252 ft 472 kts 104°
2026-05-01 07:35 53.79498 -18.86334 37248 ft 472 kts 104°
2026-05-01 07:36 53.77522 -18.75740 37256 ft 472 kts 104°
2026-05-01 07:36 53.75540 -18.65178 37243 ft 472 kts 104°
2026-05-01 07:37 53.72547 -18.49344 37245 ft 472 kts 104°
2026-05-01 07:37 53.70541 -18.38798 37234 ft 472 kts 104°
2026-05-01 07:38 53.68525 -18.28265 37236 ft 472 kts 104°
2026-05-01 07:39 53.65486 -18.12485 37227 ft 472 kts 104°
2026-05-01 07:39 53.62437 -17.96790 37225 ft 472 kts 105°
2026-05-01 07:40 53.60718 -17.88002 37228 ft 471 kts 105°
2026-05-01 07:40 53.58663 -17.77545 37217 ft 470 kts 105°
2026-05-01 07:41 53.56603 -17.67105 37223 ft 470 kts 105°
2026-05-01 07:42 53.53496 -17.51476 37205 ft 470 kts 105°
2026-05-01 07:42 53.51423 -17.41123 37199 ft 470 kts 105°
2026-05-01 07:43 53.49331 -17.30727 37203 ft 470 kts 105°
2026-05-01 07:43 53.46172 -17.15145 37186 ft 464 kts 106°
2026-05-01 07:44 53.41996 -16.94714 37180 ft 464 kts 106°
2026-05-01 07:45 53.39889 -16.84482 37175 ft 465 kts 105°
2026-05-01 07:45 53.37774 -16.74270 37173 ft 464 kts 107°
2026-05-01 07:46 53.35646 -16.64043 37166 ft 465 kts 106°
2026-05-01 07:47 53.32437 -16.48720 37163 ft 467 kts 107°
2026-05-01 07:47 53.30278 -16.38475 37148 ft 467 kts 106°
2026-05-01 07:48 53.27018 -16.23110 37148 ft 468 kts 106°
2026-05-01 07:48 53.24837 -16.12884 37136 ft 468 kts 107°
2026-05-01 07:49 53.21542 -15.97547 37135 ft 468 kts 107°
2026-05-01 07:50 53.19349 -15.87402 37125 ft 468 kts 107°
2026-05-01 07:50 53.16012 -15.72071 37122 ft 470 kts 107°
2026-05-01 07:51 53.13773 -15.61830 37119 ft 470 kts 107°
2026-05-01 07:52 53.10392 -15.46478 37120 ft 471 kts 107°
2026-05-01 07:52 53.08127 -15.36257 37104 ft 471 kts 109°
2026-05-01 07:53 53.04711 -15.20937 37099 ft 471 kts 109°
2026-05-01 07:53 53.02426 -15.10743 37094 ft 471 kts 109°
2026-05-01 07:54 53.00470 -15.00388 37091 ft 469 kts 98°
2026-05-01 07:55 52.99981 -14.84214 37083 ft 468 kts 89°
2026-05-01 07:56 53.00105 -14.57179 37075 ft 468 kts 90°
2026-05-01 07:57 53.00111 -14.40953 37068 ft 469 kts 90°
2026-05-01 07:58 53.00074 -14.19356 37063 ft 466 kts 91°
2026-05-01 07:59 52.98878 -13.98066 37048 ft 465 kts 110°
2026-05-01 08:00 52.89574 -13.69942 37046 ft 465 kts 121°
2026-05-01 08:01 52.83048 -13.51485 37038 ft 466 kts 121°
2026-05-01 08:02 52.78153 -13.37641 37031 ft 464 kts 121°
2026-05-01 08:03 52.73238 -13.23826 37031 ft 466 kts 121°
2026-05-01 08:03 52.68307 -13.10038 37028 ft 465 kts 122°
2026-05-01 08:04 52.61722 -12.91743 37024 ft 464 kts 122°
2026-05-01 08:05 52.56767 -12.78065 37029 ft 464 kts 122°
2026-05-01 08:06 52.51792 -12.64411 37031 ft 464 kts 122°
2026-05-01 08:07 52.45155 -12.46297 37027 ft 464 kts 122°
2026-05-01 08:08 52.40161 -12.32763 37036 ft 462 kts 122°
2026-05-01 08:09 52.33482 -12.14763 37040 ft 464 kts 123°
2026-05-01 08:09 52.30121 -12.05758 37040 ft 464 kts 123°
2026-05-01 08:10 52.23378 -11.87786 37045 ft 463 kts 124°
2026-05-01 08:11 52.16651 -11.69975 37049 ft 461 kts 124°
2026-05-01 08:12 52.11568 -11.56614 37050 ft 463 kts 124°
2026-05-01 08:13 52.06468 -11.43268 37055 ft 463 kts 124°
2026-05-01 08:13 52.01360 -11.29966 37050 ft 462 kts 124°
2026-05-01 08:14 51.97965 -11.21162 37058 ft 458 kts 125°
2026-05-01 08:14 51.94584 -11.12422 37065 ft 457 kts 125°
2026-05-01 08:15 51.89528 -10.99421 37067 ft 456 kts 125°
2026-05-01 08:16 51.86135 -10.90734 37069 ft 457 kts 125°
2026-05-01 08:16 51.82735 -10.82059 37068 ft 457 kts 126°
2026-05-01 08:17 51.79330 -10.73399 37049 ft 456 kts 126°
2026-05-01 08:17 51.75928 -10.64774 37077 ft 453 kts 126°
2026-05-01 08:18 51.72543 -10.56216 37078 ft 452 kts 126°
2026-05-01 08:19 51.65757 -10.39156 37077 ft 452 kts 126°
2026-05-01 08:19 51.62353 -10.30636 37085 ft 452 kts 126°
2026-05-01 08:20 51.58943 -10.22131 37086 ft 452 kts 126°
2026-05-01 08:20 51.55518 -10.13623 37088 ft 454 kts 126°
2026-05-01 08:21 51.52082 -10.05112 37093 ft 454 kts 126°
2026-05-01 08:21 51.48637 -9.96606 37093 ft 454 kts 126°
2026-05-01 08:22 51.45184 -9.88109 37092 ft 454 kts 126°
2026-05-01 08:22 51.41726 -9.79627 37092 ft 454 kts 126°
2026-05-01 08:23 51.38263 -9.71162 37094 ft 455 kts 127°
2026-05-01 08:23 51.34791 -9.62700 37094 ft 455 kts 127°
2026-05-01 08:24 51.31331 -9.54298 37093 ft 454 kts 127°
2026-05-01 08:24 51.27862 -9.45895 37097 ft 452 kts 127°
2026-05-01 08:25 51.24956 -9.38880 37095 ft 452 kts 127°
2026-05-01 08:25 51.21505 -9.30574 37100 ft 452 kts 127°
2026-05-01 08:26 51.18021 -9.22215 37102 ft 453 kts 127°
2026-05-01 08:26 51.14525 -9.13855 37108 ft 453 kts 127°
2026-05-01 08:27 51.11017 -9.05498 37107 ft 454 kts 127°
2026-05-01 08:27 51.07506 -8.97159 37111 ft 452 kts 128°
2026-05-01 08:28 51.04021 -8.88896 37114 ft 448 kts 128°
2026-05-01 08:28 51.00539 -8.80678 37120 ft 448 kts 128°
2026-05-01 08:29 50.97073 -8.72522 37114 ft 449 kts 128°
2026-05-01 08:29 50.93574 -8.64315 37121 ft 449 kts 128°
2026-05-01 08:30 50.90070 -8.56120 37119 ft 449 kts 128°
2026-05-01 08:30 50.86562 -8.47941 37091 ft 449 kts 128°
2026-05-01 08:31 50.83059 -8.39795 37129 ft 446 kts 128°
2026-05-01 08:31 50.79570 -8.31712 37128 ft 445 kts 128°
2026-05-01 08:32 50.76077 -8.23646 37132 ft 445 kts 128°
2026-05-01 08:32 50.72576 -8.15585 37133 ft 445 kts 129°
2026-05-01 08:33 50.69066 -8.07533 37135 ft 445 kts 129°
2026-05-01 08:33 50.65736 -7.99300 37138 ft 449 kts 121°
2026-05-01 08:34 50.63123 -7.90317 37138 ft 451 kts 118°
2026-05-01 08:34 50.60665 -7.81225 37143 ft 451 kts 117°
2026-05-01 08:35 50.58222 -7.72121 37146 ft 452 kts 118°
2026-05-01 08:35 50.55759 -7.63041 37151 ft 452 kts 118°
2026-05-01 08:36 50.53279 -7.53969 37151 ft 452 kts 118°
2026-05-01 08:36 50.50805 -7.44967 37151 ft 451 kts 118°
2026-05-01 08:37 50.48307 -7.35920 37156 ft 451 kts 118°
2026-05-01 08:37 50.45798 -7.26867 37156 ft 451 kts 118°
2026-05-01 08:38 50.43288 -7.17838 37159 ft 451 kts 118°
2026-05-01 08:38 50.40772 -7.08816 37159 ft 452 kts 118°
2026-05-01 08:39 50.38246 -6.99804 37164 ft 452 kts 118°
2026-05-01 08:39 50.35714 -6.90805 37144 ft 452 kts 118°
2026-05-01 08:40 50.31898 -6.77301 37159 ft 452 kts 118°
2026-05-01 08:40 50.29358 -6.68355 37175 ft 452 kts 118°
2026-05-01 08:41 50.26797 -6.59371 37177 ft 452 kts 119°
2026-05-01 08:41 50.24214 -6.50340 37173 ft 452 kts 119°
2026-05-01 08:42 50.21657 -6.41434 37157 ft 452 kts 119°
2026-05-01 08:42 50.19079 -6.32483 37179 ft 452 kts 119°
2026-05-01 08:43 50.16495 -6.23553 37179 ft 451 kts 119°
2026-05-01 08:43 50.13905 -6.14641 37181 ft 451 kts 119°
2026-05-01 08:44 50.11309 -6.05740 37182 ft 451 kts 119°
2026-05-01 08:44 50.08705 -5.96839 37183 ft 451 kts 119°
2026-05-01 08:45 50.06099 -5.87961 37183 ft 451 kts 119°
2026-05-01 08:45 50.03486 -5.79092 37183 ft 451 kts 119°
2026-05-01 08:46 50.00862 -5.70223 37183 ft 451 kts 119°
2026-05-01 08:46 49.98230 -5.61364 37175 ft 452 kts 119°
2026-05-01 08:47 49.95589 -5.52499 37178 ft 451 kts 119°
2026-05-01 08:47 49.92962 -5.43715 37158 ft 451 kts 119°
2026-05-01 08:48 49.90303 -5.34857 37163 ft 453 kts 119°
2026-05-01 08:48 49.87632 -5.25991 37175 ft 454 kts 119°
2026-05-01 08:49 49.84952 -5.17126 37195 ft 454 kts 119°
2026-05-01 08:49 49.82265 -5.08269 37198 ft 454 kts 119°
2026-05-01 08:50 49.79573 -4.99430 37207 ft 454 kts 119°
2026-05-01 08:50 49.76878 -4.90603 37195 ft 454 kts 119°
2026-05-01 08:51 49.74175 -4.81792 37200 ft 453 kts 119°
2026-05-01 08:51 49.71464 -4.72990 37216 ft 453 kts 119°
2026-05-01 08:52 49.68747 -4.64197 37199 ft 453 kts 120°
2026-05-01 08:52 49.66025 -4.55422 37195 ft 453 kts 120°
2026-05-01 08:53 49.63298 -4.46657 37203 ft 454 kts 119°
2026-05-01 08:53 49.60549 -4.37854 37208 ft 456 kts 119°
2026-05-01 08:54 49.58419 -4.28675 37207 ft 461 kts 109°
2026-05-01 08:54 49.56872 -4.19070 37211 ft 462 kts 107°
2026-05-01 08:55 49.55426 -4.09419 37213 ft 463 kts 107°
2026-05-01 08:55 49.53970 -3.99767 37209 ft 463 kts 106°
2026-05-01 08:56 49.52486 -3.90110 37217 ft 464 kts 107°
2026-05-01 08:56 49.50989 -3.80460 37217 ft 464 kts 107°
2026-05-01 08:57 49.49480 -3.70805 37218 ft 464 kts 107°
2026-05-01 08:57 49.47964 -3.61157 37220 ft 464 kts 107°
2026-05-01 08:58 49.46440 -3.51514 37220 ft 464 kts 106°
2026-05-01 08:58 49.44906 -3.41860 37222 ft 465 kts 106°
2026-05-01 08:59 49.43362 -3.32202 37222 ft 465 kts 106°
2026-05-01 08:59 49.41811 -3.22550 37222 ft 465 kts 106°
2026-05-01 09:00 49.40261 -3.12971 37225 ft 465 kts 106°
2026-05-01 09:00 49.38692 -3.03325 37228 ft 466 kts 106°
2026-05-01 09:01 49.37112 -2.93667 37224 ft 467 kts 106°
2026-05-01 09:01 49.35524 -2.84017 37274 ft 467 kts 106°
2026-05-01 09:02 49.34725 -2.79185 37466 ft 467 kts 106°
2026-05-01 09:02 49.33926 -2.74357 37706 ft 467 kts 106°
2026-05-01 09:02 49.33125 -2.69531 37935 ft 466 kts 106°
2026-05-01 09:02 49.32321 -2.64714 38133 ft 466 kts 106°
2026-05-01 09:03 49.31516 -2.59897 38301 ft 467 kts 105°
2026-05-01 09:03 49.30708 -2.55079 38487 ft 467 kts 106°
2026-05-01 09:03 49.29898 -2.50259 38701 ft 467 kts 106°
2026-05-01 09:03 49.29087 -2.45448 38894 ft 466 kts 106°
2026-05-01 09:04 49.28275 -2.40641 39056 ft 466 kts 106°
2026-05-01 09:04 49.27462 -2.35841 39183 ft 466 kts 106°
2026-05-01 09:04 49.25815 -2.26167 39225 ft 471 kts 106°
2026-05-01 09:05 49.24170 -2.16557 39227 ft 469 kts 105°
2026-05-01 09:05 49.22528 -2.06908 39231 ft 469 kts 103°
2026-05-01 09:06 49.21529 -1.97026 39217 ft 470 kts 98°
2026-05-01 09:06 49.21144 -1.92258 39217 ft 470 kts 98°
2026-05-01 09:07 49.20391 -1.82322 39222 ft 470 kts 97°
2026-05-01 09:07 49.19639 -1.72394 39229 ft 471 kts 98°
2026-05-01 09:08 49.18868 -1.62455 39224 ft 471 kts 98°
2026-05-01 09:08 49.18079 -1.52508 39222 ft 471 kts 98°
2026-05-01 09:09 49.17289 -1.42642 39225 ft 471 kts 98°
2026-05-01 09:09 49.16483 -1.32707 39212 ft 471 kts 98°
2026-05-01 09:10 49.15666 -1.22775 39215 ft 471 kts 98°
2026-05-01 09:10 49.14845 -1.12849 39214 ft 471 kts 98°
2026-05-01 09:11 49.14016 -1.02930 39203 ft 471 kts 98°
2026-05-01 09:11 49.13318 -0.94685 39203 ft 471 kts 98°
2026-05-01 09:12 49.12328 -0.83103 39201 ft 470 kts 99°
2026-05-01 09:12 49.11619 -0.74882 39206 ft 469 kts 98°
2026-05-01 09:13 49.10758 -0.65010 39207 ft 469 kts 99°
2026-05-01 09:13 49.09889 -0.55140 39210 ft 469 kts 99°
2026-05-01 09:14 49.09011 -0.45280 39210 ft 469 kts 99°
2026-05-01 09:14 49.07736 -0.35534 39206 ft 468 kts 104°
2026-05-01 09:15 49.06177 -0.25894 39209 ft 469 kts 105°
2026-05-01 09:15 49.04649 -0.16224 39205 ft 469 kts 104°
2026-05-01 09:16 49.03182 -0.06609 39203 ft 469 kts 104°
2026-05-01 09:17 49.00992 0.07889 39199 ft 466 kts 104°
2026-05-01 09:17 48.98800 0.22273 39208 ft 464 kts 104°
2026-05-01 09:18 48.96591 0.36625 39209 ft 464 kts 104°
2026-05-01 09:19 48.94359 0.50971 39208 ft 464 kts 104°
2026-05-01 09:20 48.92064 0.65257 39208 ft 463 kts 105°
2026-05-01 09:21 48.88887 0.84217 39212 ft 463 kts 105°
2026-05-01 09:21 48.86502 0.98421 39224 ft 463 kts 105°
2026-05-01 09:22 48.83301 1.17330 39230 ft 462 kts 105°
2026-05-01 09:23 48.80891 1.31425 39218 ft 462 kts 105°
2026-05-01 09:24 48.78452 1.45577 39225 ft 459 kts 105°
2026-05-01 09:25 48.75208 1.64223 39225 ft 459 kts 106°
2026-05-01 09:26 48.72748 1.78228 39228 ft 458 kts 106°
2026-05-01 09:26 48.70277 1.92191 39238 ft 457 kts 106°
2026-05-01 09:27 48.67793 2.06112 39238 ft 457 kts 106°
2026-05-01 09:28 48.66129 2.15391 39238 ft 457 kts 106°
2026-05-01 09:28 48.64457 2.24665 39238 ft 457 kts 106°
2026-05-01 09:29 48.61931 2.38573 39238 ft 458 kts 106°
2026-05-01 09:30 48.59391 2.52446 39238 ft 458 kts 106°
2026-05-01 09:30 48.56827 2.66366 39238 ft 458 kts 107°
2026-05-01 09:31 48.55365 2.75716 39239 ft 459 kts 98°
2026-05-01 09:32 48.54683 2.90141 39241 ft 460 kts 94°
2026-05-01 09:32 48.54238 3.04607 39234 ft 460 kts 94°
2026-05-01 09:33 48.53915 3.14258 39246 ft 460 kts 94°
2026-05-01 09:34 48.53397 3.28733 39248 ft 460 kts 94°
2026-05-01 09:34 48.52861 3.43136 39248 ft 460 kts 95°
2026-05-01 09:35 48.52306 3.57582 39246 ft 459 kts 95°
2026-05-01 09:36 48.51929 3.67187 39248 ft 459 kts 95°
2026-05-01 09:36 48.51545 3.76791 39255 ft 459 kts 95°
2026-05-01 09:37 48.51151 3.86392 39258 ft 459 kts 95°
2026-05-01 09:37 48.50220 4.00722 39262 ft 457 kts 105°
2026-05-01 09:38 48.47962 4.09616 39262 ft 455 kts 116°
2026-05-01 09:38 48.46557 4.13889 39261 ft 455 kts 118°
2026-05-01 09:39 48.42126 4.26549 39261 ft 455 kts 118°
2026-05-01 09:39 48.39163 4.34970 39257 ft 455 kts 118°
2026-05-01 09:40 48.34754 4.47579 39255 ft 454 kts 118°
2026-05-01 09:41 48.31811 4.55987 39249 ft 455 kts 118°
2026-05-01 09:41 48.27377 4.68596 39249 ft 455 kts 118°
2026-05-01 09:42 48.24413 4.76989 39246 ft 455 kts 118°
2026-05-01 09:43 48.18493 4.93685 39249 ft 455 kts 118°
2026-05-01 09:43 48.15510 5.02049 39254 ft 455 kts 118°
2026-05-01 09:44 48.11053 5.14580 39253 ft 455 kts 114°
2026-05-01 09:45 48.08966 5.23499 39260 ft 454 kts 107°
2026-05-01 09:45 48.06348 5.37130 39265 ft 455 kts 106°
2026-05-01 09:46 48.04630 5.46231 39268 ft 455 kts 106°
2026-05-01 09:46 48.02888 5.55323 39266 ft 455 kts 106°
2026-05-01 09:47 48.01126 5.64410 39276 ft 456 kts 106°
2026-05-01 09:47 47.99351 5.73502 39253 ft 456 kts 106°
2026-05-01 09:48 47.98474 5.77983 39060 ft 455 kts 106°
2026-05-01 09:48 47.97588 5.82507 38801 ft 453 kts 106°
2026-05-01 09:48 47.96700 5.87021 38514 ft 454 kts 107°
2026-05-01 09:48 47.95809 5.91544 38231 ft 454 kts 107°
2026-05-01 09:49 47.94917 5.96058 37776 ft 453 kts 107°
2026-05-01 09:49 47.94024 6.00571 37177 ft 455 kts 107°
2026-05-01 09:49 47.93124 6.05110 36552 ft 457 kts 107°
2026-05-01 09:49 47.92220 6.09658 35875 ft 459 kts 107°
2026-05-01 09:50 47.91309 6.14227 35177 ft 461 kts 107°
2026-05-01 09:50 47.90392 6.18816 34509 ft 462 kts 107°
2026-05-01 09:50 47.89471 6.23413 33781 ft 463 kts 107°
2026-05-01 09:50 47.88548 6.28013 32980 ft 464 kts 107°
2026-05-01 09:51 47.87618 6.32635 32166 ft 466 kts 107°
2026-05-01 09:51 47.86682 6.37275 31346 ft 468 kts 106°
2026-05-01 09:51 47.85740 6.41937 30468 ft 472 kts 106°
2026-05-01 09:51 47.84790 6.46624 29513 ft 474 kts 106°
2026-05-01 09:52 47.83837 6.51317 28748 ft 472 kts 106°
2026-05-01 09:52 47.82891 6.55966 28120 ft 467 kts 106°
2026-05-01 09:52 47.81953 6.60561 27510 ft 462 kts 106°
2026-05-01 09:52 47.81021 6.65112 26904 ft 457 kts 106°
2026-05-01 09:53 47.80100 6.69607 26291 ft 452 kts 106°
2026-05-01 09:53 47.79185 6.74057 25697 ft 448 kts 107°
2026-05-01 09:53 47.78276 6.78472 25099 ft 445 kts 106°
2026-05-01 09:53 47.77374 6.82847 24496 ft 441 kts 106°
2026-05-01 09:54 47.76474 6.87198 23890 ft 439 kts 106°
2026-05-01 09:54 47.75592 6.91458 23217 ft 435 kts 107°
2026-05-01 09:54 47.74704 6.95731 22613 ft 431 kts 107°
2026-05-01 09:54 47.73824 6.99958 22015 ft 426 kts 107°
2026-05-01 09:55 47.72953 7.04136 21409 ft 421 kts 107°
2026-05-01 09:55 47.72088 7.08278 20825 ft 418 kts 107°
2026-05-01 09:55 47.71230 7.12375 20241 ft 414 kts 107°
2026-05-01 09:55 47.70377 7.16438 19656 ft 411 kts 107°
2026-05-01 09:56 47.69529 7.20471 19090 ft 408 kts 107°
2026-05-01 09:56 47.68685 7.24473 18563 ft 404 kts 107°
2026-05-01 09:56 47.67847 7.28439 17932 ft 401 kts 107°
2026-05-01 09:56 47.67017 7.32361 17372 ft 397 kts 107°
2026-05-01 09:57 47.66194 7.36249 16815 ft 393 kts 107°
2026-05-01 09:57 47.65376 7.40101 16253 ft 390 kts 107°
2026-05-01 09:57 47.64565 7.43920 15700 ft 387 kts 107°
2026-05-01 09:57 47.63759 7.47710 15129 ft 384 kts 107°
2026-05-01 09:58 47.62956 7.51472 14614 ft 382 kts 108°
2026-05-01 09:58 47.62103 7.55184 14076 ft 379 kts 109°
2026-05-01 09:58 47.61232 7.58855 13472 ft 376 kts 109°
2026-05-01 09:58 47.60367 7.62496 12920 ft 373 kts 109°
2026-05-01 09:59 47.59517 7.66091 12471 ft 367 kts 109°
2026-05-01 09:59 47.58690 7.69598 12335 ft 353 kts 109°
2026-05-01 09:59 47.57911 7.72900 12328 ft 336 kts 109°
2026-05-01 09:59 47.57154 7.76123 12226 ft 327 kts 109°
2026-05-01 10:00 47.56406 7.79298 11784 ft 326 kts 109°
2026-05-01 10:00 47.55658 7.82463 11340 ft 324 kts 109°
2026-05-01 10:00 47.54914 7.85605 10885 ft 324 kts 109°
2026-05-01 10:00 47.54171 7.88746 10350 ft 323 kts 109°
2026-05-01 10:01 47.53435 7.91853 10017 ft 315 kts 109°
2026-05-01 10:01 47.52725 7.94849 9847 ft 302 kts 109°
2026-05-01 10:01 47.52041 7.97728 9678 ft 291 kts 109°
2026-05-01 10:01 47.51376 8.00526 9267 ft 288 kts 109°
2026-05-01 10:02 47.50916 8.03412 8809 ft 290 kts 94°
2026-05-01 10:02 47.51215 8.06347 8322 ft 292 kts 72°
2026-05-01 10:02 47.51710 8.08191 8033 ft 291 kts 67°
2026-05-01 10:02 47.52531 8.10863 7676 ft 277 kts 66°
2026-05-01 10:03 47.53322 8.13388 7362 ft 269 kts 67°
2026-05-01 10:03 47.54106 8.15923 7062 ft 271 kts 67°
2026-05-01 10:03 47.54884 8.18465 6715 ft 273 kts 67°
2026-05-01 10:03 47.55665 8.21031 6316 ft 270 kts 67°
2026-05-01 10:04 47.56416 8.23511 5993 ft 258 kts 67°
2026-05-01 10:04 47.57137 8.25893 5666 ft 249 kts 66°
2026-05-01 10:04 47.57839 8.28223 5327 ft 248 kts 67°
2026-05-01 10:04 47.58541 8.30555 4981 ft 247 kts 66°
2026-05-01 10:05 47.59229 8.32834 4650 ft 237 kts 66°
2026-05-01 10:05 47.59789 8.35040 4407 ft 223 kts 85°
2026-05-01 10:05 47.59508 8.37213 4246 ft 210 kts 116°
2026-05-01 10:05 47.58797 8.38994 4079 ft 195 kts 128°
2026-05-01 10:06 47.57886 8.40391 3973 ft 182 kts 138°
2026-05-01 10:06 47.56969 8.41640 3783 ft 176 kts 137°
2026-05-01 10:06 47.56103 8.42837 3582 ft 165 kts 137°
2026-05-01 10:06 47.55278 8.43968 3360 ft 157 kts 136°
2026-05-01 10:07 47.54497 8.45034 3138 ft 149 kts 136°
2026-05-01 10:07 47.53737 8.46046 2929 ft 147 kts 135°
2026-05-01 10:07 47.52975 8.47088 2777 ft 150 kts 134°
2026-05-01 10:07 47.52220 8.48142 2598 ft 149 kts 135°
2026-05-01 10:08 47.50716 8.50167 2151 ft 147 kts 134°
2026-05-01 10:08 47.49962 8.51215 1940 ft 148 kts 134°
2026-05-01 10:08 47.49214 8.52237 1718 ft 145 kts 135°
2026-05-01 10:09 47.48474 8.53245 1512 ft 145 kts 135°
2026-05-01 10:09 47.47743 8.54243 1411 ft 136 kts 136°
2026-05-01 10:09 47.47178 8.55017 1385 ft 85 kts 137°
2026-05-01 10:09 47.46846 8.55472 1405 ft 56 kts 137°
2026-05-01 10:10 47.46626 8.55665 1400 ft 24 kts 162°
2026-05-01 10:10 47.46498 8.55711 1407 ft 18 kts 167°
2026-05-01 10:10 47.46299 8.55872 1412 ft 16 kts 137°
2026-05-01 10:11 47.46222 8.55976 1416 ft 14 kts 140°
2026-05-01 10:11 47.46136 8.55995 1412 ft 13 kts 184°
2026-05-01 10:11 47.46046 8.55984 1411 ft 13 kts 186°
2026-05-01 10:11 47.45948 8.55958 1417 ft 14 kts 199°
2026-05-01 10:12 47.45857 8.55910 1415 ft 13 kts 199°
2026-05-01 10:12 47.45751 8.55871 1416 ft 17 kts 184°
2026-05-01 10:12 47.45579 8.55846 1421 ft 9 kts 186°
2026-05-01 10:13 47.45518 8.55810 1416 ft 12 kts 227°
2026-05-01 10:13 47.45514 8.55684 1415 ft 13 kts 275°
2026-05-01 10:13 47.45520 8.55570 1411 ft 11 kts 275°
2026-05-01 10:14 47.45483 8.55420 1409 ft 10 kts 203°
2026-05-01 10:14 47.45390 8.55381 1412 ft 14 kts 169°
2026-05-01 10:14 47.45316 8.55441 1409 ft 11 kts 130°
2026-05-01 10:14 47.45289 8.55526 1409 ft 8 kts 112°
2026-05-01 10:15 47.45272 8.55610 1417 ft 10 kts 95°
2026-05-01 10:15 47.45265 8.55727 1416 ft 12 kts 95°
2026-05-01 10:15 47.45255 8.55801 1417 ft 2 kts 131°
2026-05-01 10:15 47.45228 8.55811 1418 ft 7 kts 171°
2026-05-01 10:16 47.45184 8.55806 1412 ft 4 kts 185°
2026-05-01 10:16 47.45179 8.55806 1411 ft 0 kts 185°